Tracking 22124 objects as of 25-Jan-2021
HD Live streaming from Space Station
objects crossing your sky now

STARLINK-1119

Track STARLINK-1119 now!
10-day predictions
STARLINK-1119 is classified as:


NORAD ID: 44928
Int'l Code: 2020-001Q
Perigee: 556.1 km
Apogee: 557.6 km
Inclination: 53.0 °
Period: 95.6 minutes
Semi major axis: 6927 km
RCS: Unknown
Launch date: January 7, 2020
Source: United States (US)
Launch site: AIR FORCE EASTERN TEST RANGE (AFETR)
aabbcc
Your satellite tracking list
Your tracking list is empty




NASA's NSSDC Master Catalog

Two Line Element Set (TLE):
1 44928U 20001Q   21024.91362886  .00000420  00000-0  47960-4 0  9998
2 44928  53.0002 100.3663 0001040 104.6465 255.4638 15.05584488 58036
Source of the keplerian elements: AFSPC